Lid_Strength_Index
7 6 5 5 3 2 1 1 1 1 0 0 -0 -1 -1 -1 -1 1 4 2 3 6 5 4 4 7 7 7 11 8 9 8 10 13 13 14 13 13 14 14 15 15 16 16 15 16 16 7 8 11 10 9 8 8
7 6 6 5 4 3 2 1 1 1 0 0 -0 -0 -1 -1 -1 -1 3 2 1 4 5 4 4 3 4 5 6 7 9 8 8 11 11 11 14 13 15 17 13 15 14 14 14 14 9 8 8 8 7 8 7 7
7 6 6 6 5 3 2 1 1 1 0 -0 -0 -1 -1 -1 -1 0 2 4 3 5 6 8 7 4 3 3 3 8 7 6 7 6 9 10 13 11 15 14 14 12 11 13 12 10 11 9 8 8 6 7 6 6
7 7 6 6 5 4 3 2 1 1 0 -0 -0 -1 -1 -1 -1 0 3 5 3 4 9 9 4 5 3 3 3 4 5 5 5 6 8 10 12 9 12 13 13 12 11 12 12 11 10 9 9 9 9 7 6 5
8 7 7 6 5 4 3 2 2 1 0 0 -0 -1 -0 -1 -0 1 4 4 3 5 9 9 6 5 5 3 3 4 5 6 7 9 10 11 9 10 10 10 12 10 12 14 13 10 11 10 9 8 9 9 6 6
8 7 7 6 6 5 3 2 2 1 0 0 0 -0 -0 -0 1 5 8 4 3 4 9 12 7 6 5 4 4 5 5 7 7 8 9 9 6 9 12 13 10 9 8 8 10 8 9 9 8 8 9 9 6 5
8 8 7 6 6 5 4 3 2 1 1 0 -0 0 1 0 4 7 8 5 3 5 9 11 11 6 5 4 5 6 6 7 8 9 9 9 9 8 10 13 9 9 8 8 8 8 10 9 9 8 8 8 8 5
8 8 7 7 6 5 4 3 2 1 1 1 0 0 0 1 3 6 5 3 3 7 7 11 12 9 5 8 8 6 8 8 8 9 9 9 9 9 12 9 8 9 9 9 9 8 8 8 8 8 8 8 8 7
8 8 8 7 7 6 5 4 2 2 1 1 0 0 3 6 7 6 1 2 4 7 10 10 12 12 6 7 6 7 7 11 8 10 10 9 11 12 10 9 8 9 10 9 8 8 8 9 9 9 8 9 9 8
7 7 8 7 7 6 5 4 3 2 2 1 2 4 7 4 1 1 5 7 8 7 9 10 9 12 9 8 9 9 9 10 12 10 8 11 12 8 7 7 7 7 8 9 10 11 9 9 9 8 8 8 8 8
7 7 7 7 7 7 6 4 4 3 2 5 7 7 4 2 5 6 9 9 8 9 7 8 7 9 6 10 11 9 11 11 14 11 11 12 13 9 7 7 6 7 7 7 8 9 8 7 8 8 8 8 8 7
7 7 7 7 7 7 6 5 5 7 7 6 5 4 5 5 7 9 12 10 10 11 8 9 8 8 8 8 11 10 12 12 15 9 12 14 10 7 7 7 6 6 6 6 8 8 8 8 7 7 7 8 7 6
7 7 7 7 7 7 6 6 6 5 4 4 6 6 8 9 13 12 14 12 11 9 8 8 9 8 9 9 11 11 13 14 10 13 14 11 9 8 8 8 7 6 6 6 7 7 7 6 7 6 6 7 6 7
7 7 7 7 7 7 7 7 6 6 7 7 9 14 12 13 11 10 11 10 8 8 8 9 9 10 9 11 11 13 13 11 14 15 14 10 9 8 8 7 7 7 5 5 6 6 6 5 7 5 5 6 6 7
7 7 7 7 7 8 7 7 7 7 6 8 9 15 13 9 8 7 7 8 7 7 8 9 10 9 12 12 11 12 15 15 13 14 12 9 8 7 7 7 7 7 6 5 5 5 5 4 6 5 5 6 6 6
7 7 8 6 8 8 8 8 7 6 6 7 9 11 9 9 9 8 8 8 7 7 7 9 11 12 13 14 13 14 14 15 12 12 8 7 6 6 6 6 6 6 5 5 5 5 4 5 5 5 4 5 4 5
7 11 7 7 8 8 8 8 6 6 9 9 11 9 9 9 9 9 8 8 7 8 10 9 12 14 12 15 16 12 12 11 9 7 6 6 6 6 5 5 6 6 5 5 5 5 5 4 5 5 5 4 4 4
10 10 8 7 8 8 7 6 7 8 10 10 11 10 9 8 9 8 7 6 7 8 8 10 9 13 14 14 13 10 9 7 7 6 6 5 6 6 5 5 5 5 5 5 4 4 4 5 6 6 5 5 4 4
8 8 7 7 8 10 10 7 7 11 10 10 10 9 9 9 8 7 6 6 6 6 7 8 10 12 12 9 9 8 7 7 7 6 6 5 5 5 5 4 5 5 5 5 5 5 4 4 4 4 5 5 5 5
6 7 7 7 7 9 8 8 7 10 12 10 9 10 10 10 8 8 7 7 7 8 8 10 9 9 8 7 7 6 6 6 6 6 7 6 6 6 5 5 5 5 5 4 5 6 4 4 4 4 5 6 4 5
7 7 7 8 8 9 8 8 9 10 9 9 9 10 10 9 9 9 8 7 7 9 9 8 8 7 6 6 5 5 6 5 6 6 6 7 5 6 5 4 4 5 5 5 5 5 6 5 4 3 4 4 4 3
8 6 9 7 9 8 9 7 9 9 10 10 10 10 12 13 11 9 8 8 8 8 8 7 7 6 6 6 5 5 5 4 5 5 5 5 5 6 6 6 5 5 5 5 5 5 5 5 5 4 4 4 5 5
7 8 9 8 9 10 11 8 11 10 12 11 11 11 12 12 10 8 10 8 7 5 6 6 5 5 5 4 4 4 4 4 5 5 5 5 5 5 5 6 6 6 6 5 5 5 4 8 7 4 4 5 5 5
6 9 10 12 11 14 9 11 10 12 12 13 14 12 12 11 10 12 11 10 8 6 6 5 5 7 6 5 6 6 5 4 4 4 4 5 5 5 5 5 5 5 5 5 5 4 5 5 6 5 5 5 6 6
12 14 14 18 11 10 11 13 12 14 13 12 13 13 12 10 14 12 11 10 8 8 6 6 6 6 7 7 6 5 5 5 4 5 4 4 5 4 4 5 5 5 5 5 5 4 4 4 5 5 6 7 7 7
16 15 15 13 13 12 13 14 13 13 12 13 13 12 12 13 13 13 11 9 8 8 7 6 7 6 6 6 6 6 5 5 5 5 5 4 3 6 6 6 6 6 4 4 4 4 5 5 4 4 5 6 8 6
18 17 13 9 11 10 12 12 12 13 13 14 14 14 14 14 13 10 8 7 7 6 6 5 7 7 7 7 5 5 4 4 4 4 4 3 3 3 4 6 6 5 4 3 3 3 4 4 5 5 5 5 5 5
14 13 14 13 12 11 12 14 14 14 12 10 11 13 14 13 12 9 7 6 5 5 5 5 7 8 7 5 5 5 5 5 3 3 4 4 3 3 3 3 4 8 4 4 3 3 3 3 4 5 6 7 7 6
13 13 12 14 13 13 13 13 13 11 9 10 13 13 11 8 7 7 5 5 4 5 7 8 7 3 3 4 4 5 6 6 5 6 7 9 8 5 4 3 4 4 3 5 8 6 5 5 5 5 6 7 7 8
14 11 13 14 15 15 13 11 11 10 9 9 9 8 8 7 6 5 4 4 5 5 5 5 5 4 5 5 6 5 5 5 6 7 8 9 8 7 6 4 4 3 3 3 4 5 8 6 7 6 7 8 9 9
11 12 14 14 14 12 11 10 9 9 8 7 6 7 8 7 6 5 5 4 3 4 5 5 5 4 5 6 6 7 7 7 7 7 7 7 7 7 7 6 5 3 3 3 4 5 6 7 9 9 9 9 8 9
12 13 13 14 13 11 10 11 10 9 8 8 9 8 8 7 8 6 4 4 4 5 7 5 4 5 4 5 6 7 9 9 9 9 8 8 8 8 7 6 5 4 4 5 5 6 7 8 10 10 10 11 11 11
12 11 12 12 14 13 10 10 10 11 10 11 8 7 7 7 8 6 4 5 4 4 5 5 5 5 5 6 7 8 9 9 9 10 10 10 10 10 8 7 5 5 6 7 7 8 9 9 10 10 11 11 11 12